Flag for Germany Weather past 2 weeks in Heide, Schleswig-Holstein, Germany

Now
48 °F

Drizzle. Fog.


Feels Like: 40 °F
Forecast: 47 / 49 °F
Wind: 29 mph from Northeast

Location: Hohn

Current Time: Dec 23, 2014 at 12:54:55 AM

Latest Report: Dec 23, 2014 at 12:20 AM


Visibility: 2 mi

Pressure: 29.71 "Hg

Humidity: 100%

Dew point: 48 °F

Location of HeideLocation

Historic Weather in Heide — Graph

°F

Heide temperature yesterday

Maximum temperature yesterday: 50 °F (at 7:20 AM)
Minimum temperature yesterday: 46 °F (at 5:20 AM)
Average temperature yesterday: 49 °F

Past Weeks' High & Low Weather Summary

 TemperatureHumidityPressure
High52 °F (Dec 18, 4:20 PM)100% (Dec 8, 11:20 AM)30.27 "Hg (Dec 8, 11:20 AM)
Low32 °F (Dec 14, 5:20 AM)70% (Dec 12, 11:20 PM)29.06 "Hg (Dec 12, 1:20 PM)
Average41 °F90%29.72 "Hg
* Reported Dec 7 11:20 PM — Dec 22 11:20 PM, Heide, Weather by CustomWeather, © 2014

Note: Actual official high and low records may vary slightly from our data, if they occured in-between our weather recording intervals... More about our weather records

Advertising

Heide weather history for previous 24 hours

 ConditionsComfort  
Time TempWeatherWind HumidityBarometerVisibility
11:20 PM
Dec 22
48 °FDrizzle. Fog.24 mph100%29.68 "Hg2 mi
10:20 PM48 °FDrizzle. Fog.24 mph100%29.68 "Hg2 mi
9:20 PM50 °FDrizzle. Fog.18 mph94%29.68 "Hg2 mi
8:20 PM48 °FDrizzle. Fog.21 mph100%29.71 "Hg2 mi
7:20 PM48 °FDrizzle. Fog.20 mph100%29.68 "Hg3 mi
6:20 PM48 °FDrizzle. Fog.18 mph100%29.68 "Hg3 mi
5:20 PM48 °FCool.10 mph100%29.68 "HgN/A
4:20 PM48 °FCool.9 mph100%29.68 "HgN/A
3:20 PM48 °FCool.8 mph100%29.65 "HgN/A
2:20 PM50 °FCool.7 mph94%29.65 "HgN/A
1:20 PM50 °FCool.14 mph100%29.62 "HgN/A
12:20 PM50 °FCool.14 mph94%29.62 "HgN/A
11:20 AM50 °FRain. Fog.21 mph94%29.62 "Hg2 mi
10:20 AM50 °FRain. Fog.28 mph94%29.62 "Hg2 mi
9:20 AM50 °FRain. Fog.23 mph94%29.62 "Hg3 mi
8:20 AM50 °FDrizzle. Fog.20 mph88%29.65 "Hg2 mi
7:20 AM50 °FCool.N/A88%29.65 "HgN/A
6:20 AM48 °FCool.N/A94%29.68 "HgN/A
5:20 AM46 °FCool.N/A100%29.68 "HgN/A
Weather by CustomWeather, © 2014

See weather overviewHow to use our weather pages